User: anonymous
Location: Waldport
(44.4270°N, 124.0680°W)
Time: 06:26:30
(UTC-07:00)
Language:

Cosmos 1023 Rocket - Orbit

View from above orbital plane
View from above orbital plane
View from above satellite
View from above satellite

Ground track
Ground track

The orbit data is extracted from the following two-line orbital elements,

1 10962U 78063B   14258.45859929  .00000275  00000-0  93946-4 0  8340
2 10962 074.0789 275.1547 0024184 075.3801 030.0410 14.40701039901028
Epoch (UTC): 15 September 2014 11:00:22
Eccentricity: 0.0024184
inclination: 74.0789°
perigee height: 739 km
apogee height: 773 km
right ascension of ascending node: 275.1547°
argument of perigee: 75.3801°
revolutions per day: 14.40701039
mean anomaly at epoch: 30.0410°
orbit number at epoch: 90102

The dashed part of the orbit path shows where the satellite is in the earth's shadow,  

DLR